sat.trackr.live / text

‹ back to catalog

STARLINK-36759

NORAD 68771 · 2026-086F

PAYLOAD ACTIVE UNKNOWN

§ Identity

Operator
Country
US
Launch date
2026-04-19
Launch site
AFWTR
Launch vehicle
Mass (kg)
RCS (m²)

Purposes: comms

External: N2YO · Heavens-Above · Gunter

§ Orbital elements

Epoch: 2026-09-20T01:17:18.851424Z

Period
93.91 min
Inclination
97.2859°
Eccentricity
0.0001109
Mean motion
15.33451347 rev/d
Perigee alt
464.8 km
Apogee alt
466.3 km
Semi-major
6,843.7 km
B*
3.4351e-4
RAAN
298.4431°
Arg perigee
100.9507°
Mean anomaly
259.1861°
Rev number
2,361

§ Raw data

STARLINK-367591 68771U 26086F   26263.05369041  .00011033  00000+0  34351-3 0  99942 68771  97.2859 298.4431 0001109 100.9507 259.1861 15.33451347 23615

JSON: /api/v1/satellites/68771 · /tle

For live sub-satellite position, see the globe view (requires WebGL).

§ Visibility from observer

Set your observer location to see the next 7 days of passes ≥ 10°. The values pass through the URL so the page stays shareable.

No JS? Fill the form by hand. The geolocation button needs JavaScript.